sat.trackr.live / text

‹ back to catalog

STARLINK-33594

NORAD 62770 · 2025-015N

PAYLOAD ACTIVE UNKNOWN

§ Identity

Operator
Country
US
Launch date
2025-01-21
Launch site
AFWTR
Launch vehicle
Mass (kg)
RCS (m²)

Purposes: comms

External: N2YO · Heavens-Above · Gunter

§ Orbital elements

Epoch: 2026-05-24T22:45:36.811008Z

Period
94.01 min
Inclination
53.1593°
Eccentricity
0.0000841
Mean motion
15.31721004 rev/d
Perigee alt
470.1 km
Apogee alt
471.3 km
Semi-major
6,848.8 km
B*
8.6390e-4
RAAN
327.7505°
Arg perigee
104.2618°
Mean anomaly
255.8477°
Rev number
7,616

§ Raw data

STARLINK-335941 62770U 25015N   26144.94834272  .00026556  00000+0  86390-3 0  99932 62770  53.1593 327.7505 0000841 104.2618 255.8477 15.31721004 76166

JSON: /api/v1/satellites/62770 · /tle

For live sub-satellite position, see the globe view (requires WebGL).

§ Visibility from observer

Set your observer location to see the next 7 days of passes ≥ 10°. The values pass through the URL so the page stays shareable.

No JS? Fill the form by hand. The geolocation button needs JavaScript.